Preview of NWS' New Version of Forecast
This preview is not operational and should not be used for support decisions.

Regional Weather Roundup (RWR)

Issued by National Weather Service (NWS)

                            
000
ASUS43 KDTX 182201
RWRMI 
MICHIGAN HOURLY REGIONAL WEATHER ROUNDUP
NATIONAL WEATHER SERVICE DETROIT/PONTIAC MI
600 PM EDT TUE JUN 18 2019

NOTE: "FAIR" INDICATES FEW OR NO CLOUDS BELOW 12,000 FEET WITH NO
SIGNIFICANT WEATHER AND/OR OBSTRUCTION TO VISIBILITY.

MIZ047>049-052>055-059>063-066>070-074>076-081>083-182300-
SOUTHEAST LOWER MICHIGAN
  
CITY           SKY/WX    TMP DP  RH WIND       PRES   REMARKS
ADRIAN         FAIR      78  59  51 S3        29.88F                  
ALMA           PTSUNNY   80  54  41 CALM      29.87F                  
ANN ARBOR      FAIR      77  62  59 SE6       29.88F                  
BAD AXE        PTSUNNY   73  57  58 E8        29.89S                  
CARO           FAIR      77  59  54 CALM      29.87F                  
DETROIT CITY   PTSUNNY   74  59  59 SE9       29.88F                  
DETROIT        PTSUNNY   76  59  55 S12       29.89S                  
FLINT          PTSUNNY   80  58  46 NW9       29.88F                  
GROSSE ILE     FAIR      70  62  76 S7        29.89F                  
HILLSDALE      PTSUNNY   76  58  53 S5        29.88F                  
HOWELL         FAIR      76  57  51 CALM      29.88F                  

CITY           SKY/WX    TMP DP  RH WIND       PRES   REMARKS
JACKSON        PTSUNNY   78  62  57 CALM      29.88F                  
LAMBERTVILLE   FAIR      76  62  60 E6        29.88F                  
LANSING        FAIR      79  58  48 NW6       29.88F                  
LAPEER         FAIR      77  58  50 CALM      29.89F                  
MASON          FAIR      78  60  53 CALM      29.88F                  
MONROE         FAIR      75  65  71 SE5       29.88F                  
MT. CLEMENS    MOSUNNY   74  64  70 E7        29.88F                  
PONTIAC        FAIR      78  60  53 W6        29.88S                  
PORT HOPE        N/A     61  54  77 E13       29.89F                  
PORT HURON     FAIR      77  54  44 NE5       29.89F                  
MIDLAND        FAIR      79  55  42 S8        29.86F                  
TROY           CLOUDY    78  55  44 E5        29.90F                  
SAGINAW HB     FAIR      81  57  44 CALM      29.87F                  
$$
MIZ043>046-050>051-056>058-064>065-071>073-077>080-182300-
SOUTHWEST LOWER MICHIGAN
  
CITY           SKY/WX    TMP DP  RH WIND       PRES   REMARKS
BATTLE CREEK   FAIR      81  63  54 VRB5      29.88F                  
BENTON HARBOR  FAIR      69  60  73 N3        29.89F                  
BIG RAPIDS     FAIR      77  57  50 SW6       29.87F                  
COLDWATER      FAIR      78  59  51 SW5       29.88F                  
FREMONT        FAIR      77  57  50 SW8       29.88S                  
HOLLAND        FAIR      74  61  63 W9        29.89F                  
GRAND RAPIDS   FAIR      79  59  50 SW7       29.87F                  
IONIA          FAIR      77  54  44 S6        29.86F                  
KALAMAZOO      FAIR      79  59  50 VRB3      29.87F                  
LUDINGTON      FAIR      66  58  74 W6        29.89F                  
MARSHALL       CLOUDY    80  62  54 CALM      29.87F                  
MOUNT PLEASANT PTSUNNY   79  57  46 W3        29.86F                  
MUSKEGON       PTSUNNY   69  58  67 NW6       29.89F                  
SOUTH HAVEN    FAIR      72  61  68 NW5       29.89F                  
$$
MIZ016>042-182300-
NORTHERN LOWER MICHIGAN
  
CITY           SKY/WX    TMP DP  RH WIND       PRES   REMARKS
ALPENA         PTSUNNY   63  50  62 NE6       29.89S                  
BEAVER ISLAND  CLOUDY    64  54  70 SW9       29.90S                  
BELLAIRE       CLOUDY    71  51  49 CALM      29.87F                  
CADILLAC       FAIR      77  57  50 SW7       29.88F                  
CHARLEVOIX     FAIR      63  53  71 NW8       29.92S                  
GAYLORD        PTSUNNY   72  42  34 NW7       29.89S                  
GRAYLING       CLOUDY    74  57  55 SW5       29.86F                  
HARBOR SPRINGS PTSUNNY   64  47  55 SW5       29.88F                  
HOUGHTON LAKE  FAIR      76  52  43 SW7       29.88F                  
MANISTEE       FAIR      69  60  73 W6        29.87F                  
OSCODA         PTSUNNY   72  52  48 S8        29.87F                  
PELLSTON       PTSUNNY   72  43  35 W5        29.88F                  
ROGERS CITY    PTSUNNY   67  52  59 NE6       29.88F                  
TRAVERSE CITY  CLOUDY    66  54  65 NE8       29.86F                  
$$
MIZ007>008-015-182300-
EASTERN UPPER MICHIGAN
  
CITY           SKY/WX    TMP DP  RH WIND       PRES   REMARKS
KINROSS        CLOUDY    69  51  52 SW7       29.88F                  
MACKINAC ISLAN PTSUNNY   65  47  50 SW3       29.89S                  
S. S. MARIE    CLOUDY    68  56  65 MISG      29.87S                  
MUNISING         N/A     51  32  48 E7        29.90S                  
$$
MIZ004>006-011>014-085-182300-
CENTRAL UPPER MICHIGAN
  
CITY           SKY/WX    TMP DP  RH WIND       PRES   REMARKS
MANISTIQUE     LGT RAIN  55  53  90 CALM      29.89S                  
ESCANABA       CLOUDY    64  59  83 N10G16    29.88R                  
MENOMINEE      PTSUNNY   70  62  76 SW15G21   29.85F                  
SAWYER-GWINN   CLOUDY    55  48  76 NE12      29.90S                  
$$
MIZ001>003-009>011-084-182300-
WESTERN UPPER MICHIGAN
  
CITY           SKY/WX    TMP DP  RH WIND       PRES   REMARKS
IRON MOUNTAIN  PTSUNNY   73  52  47 NW9       29.86S                  
HOUGHTON       PTSUNNY   64  50  60 N8        29.91S                  
COPPER HARBOR    N/A     51  47  86 CALM      29.92F                  
IRONWOOD       CLOUDY    60  53  77 N5        29.94F                  
$$

ABBREVIATIONS USED IN REMARKS
   TC - TEMPERATURE IN CELSIUS
  WCI - WIND CHILL INDEX
   HX - HEAT INDEX
  VSB - VISIBILITY